Flag for Canada Weather past 2 weeks in Yarmouth County, Nova Scotia, Canada

Now
59 °F

Low clouds.


Feels Like: 59 °F
Forecast: 59 / 72 °F
Wind: 5 mph from South

Location: Yarmouth

Current Time: Jul 29, 2015 at 12:51:21 AM

Latest Report: Jul 29, 2015 at 12:00 AM


Visibility: 12 mi

Pressure: 29.96 "Hg

Humidity: 100%

Dew point: 59 °F

Location of Yarmouth CountyLocation

Historic Weather in Yarmouth County — Graph

°F

Yarmouth County temperature yesterday

Maximum temperature yesterday: 68 °F (at 3:00 PM)
Minimum temperature yesterday: 59 °F (at 10:49 AM)
Average temperature yesterday: 64 °F

Past Weeks' High & Low Weather Summary

 TemperatureHumidityPressure
High77 °F (Jul 15, 1:00 PM)100% (Jul 14, 12:00 AM)30.11 "Hg (Jul 14, 12:00 AM)
Low48 °F (Jul 17, 6:00 AM)38% (Jul 17, 3:00 PM)29.53 "Hg (Jul 22, 6:00 AM)
Average63 °F88%29.87 "Hg
* Reported Jul 13 11:00 PM — Jul 28 11:00 PM, Yarmouth County, Weather by CustomWeather, © 2015

Note: Actual official high and low records may vary slightly from our data, if they occured in-between our weather recording intervals... More about our weather records

Advertising

Yarmouth County weather history for previous 24 hours

 ConditionsComfort  
Time TempWeatherWind HumidityBarometerVisibility
11:00 PM
Tue, Jul 28
61 °FOvercast.6 mph94%29.97 "Hg9 mi
10:00 PM63 °FMostly cloudy.6 mph94%29.97 "Hg9 mi
9:00 PM63 °FOvercast.3 mph94%29.97 "Hg9 mi
8:00 PM63 °FBroken clouds.7 mph94%29.97 "Hg12 mi
7:47 PM64 °FPartly sunny.5 mph94%29.96 "Hg12 mi
7:00 PM64 °FMore clouds than sun.6 mph94%29.96 "Hg15 mi
6:00 PM68 °FPartly sunny.8 mph83%29.96 "Hg15 mi
5:00 PM66 °FBroken clouds.8 mph88%29.96 "Hg15 mi
4:00 PM66 °FCloudy.14 mph88%29.96 "Hg12 mi
3:00 PM68 °FPartly sunny.6 mph88%29.96 "Hg9 mi
2:00 PM63 °FFog.6 mph100%29.96 "Hg2 mi
1:54 PM63 °FFog.7 mph100%29.96 "Hg2 mi
1:00 PM63 °FRain. Fog.7 mph100%29.98 "Hg2 mi
12:00 PM61 °FThunderstorms. Fog.6 mph100%29.98 "Hg2 mi
11:00 AM59 °FStrong thunderstorms. Fog.9 mph100%29.98 "Hg2 mi
10:49 AM59 °FStrong thunderstorms. Fog.10 mph100%30.00 "Hg2 mi
10:00 AM63 °FThunderstorms. Mostly cloudy.9 mph100%30.00 "Hg8 mi
9:00 AM64 °FThunderstorms. Mostly cloudy.12 mph94%30.00 "Hg9 mi
8:00 AM64 °FSprinkles. Mostly cloudy.13 mph94%29.99 "Hg12 mi
7:00 AM66 °FOvercast.10 mph88%30.00 "Hg15 mi
6:00 AM66 °FOvercast.14 mph94%30.00 "Hg10 mi
5:00 AM66 °FPassing clouds.10 mph88%30.01 "Hg10 mi
4:00 AM66 °FPassing clouds.10 mph88%30.02 "Hg10 mi
3:00 AM66 °FOvercast.12 mph88%30.03 "Hg10 mi
2:00 AM64 °FLow clouds.12 mph94%30.04 "Hg10 mi
1:00 AM64 °FLow clouds.10 mph94%30.05 "Hg10 mi
12:00 AM64 °FLow clouds.9 mph94%30.06 "Hg10 mi
Weather by CustomWeather, © 2015

See weather overviewHow to use our weather pages